{"data":{"norad_id":62045,"intl_designator":"2024-216P","name":"STARLINK-32618","alt_names":[],"object_type":"PAYLOAD","status":"ACTIVE","operator":null,"country":"US","launch_date":"2024-11-21","launch_site_code":"AFETR","launch_vehicle":null,"mission":null,"orbit_class":"UNKNOWN","rcs_meters":null,"size_class":null,"mass_kg":null,"dimensions":null,"purposes":["comms"],"wikipedia_slug":null,"has_3d_model":false,"image_url":null,"decayed_at":null,"tle_current":{"epoch":"2026-05-25T02:59:35.555712Z","epoch_age_seconds":67360,"freshness":"FRESH","line1":"1 62045U 24216P   26145.12471708  .00012630  00000+0  46752-3 0  9998","line2":"2 62045  42.9981 184.8018 0001191 267.5415  92.5300 15.27591265 85560","mean_motion":15.27591265,"eccentricity":0.0001191,"inclination_deg":42.9981,"raan_deg":184.8018,"arg_perigee_deg":267.5415,"mean_anomaly_deg":92.53,"bstar":0.00046752,"rev_number":8556,"period_min":94.266053557199,"perigee_km":482.19820153773,"apogee_km":483.83252803103,"semimajor_km":6861.1523647844,"source":"CELESTRAK","updated_at":"2026-05-25T13:38:19.526524Z"}}}